WXM80 ListenWXM80 Stop

You find our weather info also at:

UK Metoffice

WeatherCloud

Weather Underground

Northeastern Weather Network

AWEKAS

Citizen Weather Observer Program (CWOP)

HAMweather, WeatherForYou, PWS Weather


Weather Underground History page Text

Daily Summary for April 20, 2017 Units:  Metric    English   Both
« Previous Day
Next Day »
Daily Weekly Monthly Yearly Custom
  High: Low: Average:
Temperature: 17.3 °C 8.5 °C 11.7 °C
Dew Point: 13.4 °C 7.7 °C 9.9 °C
Humidity: 98 % 72 % 89 %
Wind Speed: 10.1 km/h 0 km/h 2.1 km/h
Wind Gust: 19.3 km/h - -
Wind:- - East
Pressure: 1022.9 hPa 1015.5 hPa -
Precipitation: 0 mm    
Historical Graphs
 
 
Tabular Data for April 20, 2017
Time Temperature Dew Point Pressure Wind Wind Speed Wind Gust Humidity Rainfall Rate (Hourly)
00:04 8.7 °C 7.9 °C 1022.9 hPa Calm     95 % 0 mm
00:09 8.7 °C 7.9 °C 1022.6 hPa Calm     95 % 0 mm
00:15 8.7 °C 7.9 °C 1022.6 hPa Calm     95 % 0 mm
00:20 8.7 °C 7.9 °C 1022.6 hPa Calm     95 % 0 mm
00:25 8.7 °C 7.9 °C 1022.2 hPa Calm     95 % 0 mm
00:30 8.8 °C 8 °C 1022.2 hPa Calm     95 % 0 mm
00:35 8.8 °C 8 °C 1022.2 hPa Calm     95 % 0 mm
00:40 8.8 °C 8 °C 1022.6 hPa Calm     95 % 0 mm
00:45 8.8 °C 8 °C 1022.6 hPa Calm   1.9 km/h 95 % 0 mm
00:50 8.8 °C 8 °C 1022.2 hPa SSE 0.2 km/h   95 % 0 mm
00:55 8.8 °C 8.1 °C 1022.2 hPa SSE 1.1 km/h 1.9 km/h 95 % 0 mm
01:00 8.8 °C 8 °C 1022.2 hPa Calm     95 % 0 mm
01:05 8.8 °C 8 °C 1022.2 hPa Calm     95 % 0.25 mm
01:10 8.8 °C 8 °C 1022.2 hPa Calm     95 % 0.76 mm
01:15 8.7 °C 7.9 °C 1021.9 hPa Calm   3.7 km/h 95 % 1.78 mm
01:20 8.7 °C 7.9 °C 1021.9 hPa Calm     95 % 1.78 mm
01:25 8.7 °C 7.9 °C 1021.9 hPa Calm     95 % 2.03 mm
01:30 8.7 °C 7.9 °C 1021.6 hPa Calm     95 % 2.03 mm
01:35 8.7 °C 7.9 °C 1021.9 hPa SSE 0.3 km/h 1.6 km/h 95 % 2.03 mm
01:40 8.6 °C 7.8 °C 1021.6 hPa SSE 0.3 km/h   95 % 2.03 mm
01:45 8.6 °C 7.8 °C 1021.6 hPa SSE 1.1 km/h 3.7 km/h 95 % 2.03 mm
01:50 8.6 °C 7.8 °C 1021.6 hPa Calm     95 % 2.03 mm
01:55 8.6 °C 7.8 °C 1021.6 hPa SSE 0.2 km/h 1.9 km/h 95 % 2.03 mm
02:00 8.6 °C 7.8 °C 1021.6 hPa Calm     95 % 2.03 mm
02:05 8.6 °C 7.8 °C 1021.6 hPa SSE 0.2 km/h 1.9 km/h 95 % 1.52 mm
02:10 8.5 °C 7.7 °C 1021.6 hPa ENE 1.1 km/h 3.2 km/h 95 % 1.52 mm
02:15 8.6 °C 7.8 °C 1021.6 hPa Calm     95 % 0.76 mm
02:20 8.5 °C 7.7 °C 1021.2 hPa Calm   3.7 km/h 95 % 1.27 mm
02:25 8.5 °C 7.7 °C 1020.9 hPa Calm     95 % 1.27 mm
02:30 8.5 °C 7.7 °C 1020.5 hPa Calm   1.9 km/h 95 % 1.27 mm
02:35 8.5 °C 7.7 °C 1020.5 hPa Calm     95 % 1.27 mm
02:40 8.5 °C 7.7 °C 1020.5 hPa Calm     95 % 1.27 mm
02:45 8.5 °C 7.7 °C 1020.5 hPa Calm     95 % 1.27 mm
02:50 8.5 °C 7.9 °C 1020.5 hPa Calm     96 % 1.27 mm
02:55 8.5 °C 7.9 °C 1020.2 hPa Calm     96 % 1.27 mm
03:00 8.6 °C 7.9 °C 1020.2 hPa ENE 1.8 km/h 3.7 km/h 96 % 1.27 mm
03:05 8.6 °C 7.9 °C 1020.2 hPa Calm     96 % 1.27 mm
03:10 8.6 °C 7.9 °C 1020.5 hPa Calm     96 % 1.02 mm
03:15 8.6 °C 7.9 °C 1020.2 hPa ENE 0.2 km/h 1.9 km/h 96 % 0.76 mm
03:20 8.6 °C 7.9 °C 1020.2 hPa Calm     96 % 0.25 mm
03:25 8.6 °C 7.9 °C 1020.2 hPa Calm   1.9 km/h 96 % 0 mm
03:31 8.6 °C 8 °C 1020.2 hPa Calm     96 % 0 mm
03:36 8.6 °C 8 °C 1020.2 hPa ENE 0.6 km/h 1.9 km/h 96 % 0 mm
03:41 8.6 °C 8 °C 1019.9 hPa ENE 0.5 km/h 3.7 km/h 96 % 0 mm
03:46 8.6 °C 8 °C 1019.9 hPa ENE 0.8 km/h 1.9 km/h 96 % 0 mm
03:51 8.7 °C 8.1 °C 1019.9 hPa ENE 0.8 km/h 1.9 km/h 96 % 0 mm
03:56 8.7 °C 8.1 °C 1019.9 hPa ENE 0.6 km/h 3.7 km/h 96 % 0 mm
04:01 8.6 °C 8 °C 1019.9 hPa ENE 1.3 km/h 3.2 km/h 96 % 0 mm
04:06 8.6 °C 8 °C 1019.5 hPa ENE 0.3 km/h 1.9 km/h 96 % 0 mm
04:11 8.6 °C 8 °C 1019.5 hPa ENE 0.5 km/h 1.9 km/h 96 % 0 mm
04:16 8.6 °C 8 °C 1019.5 hPa Calm     96 % 0 mm
04:21 8.6 °C 8 °C 1019.5 hPa Calm   1.9 km/h 96 % 0 mm
04:26 8.7 °C 8.1 °C 1019.2 hPa ENE 1.6 km/h 3.7 km/h 96 % 0 mm
04:31 8.7 °C 8.1 °C 1019.2 hPa ENE 0.3 km/h 1.9 km/h 96 % 0 mm
04:36 8.6 °C 8 °C 1019.2 hPa ENE 1.1 km/h 3.7 km/h 96 % 0 mm
04:41 8.6 °C 8 °C 1019.2 hPa Calm     96 % 0.25 mm
04:46 8.6 °C 8 °C 1019.2 hPa ENE 0.5 km/h 1.9 km/h 96 % 0.25 mm
04:51 8.7 °C 8.1 °C 1019.2 hPa Calm   1.9 km/h 96 % 0.25 mm
04:56 8.6 °C 8 °C 1019.2 hPa Calm     96 % 0.25 mm
05:01 8.7 °C 8.1 °C 1018.8 hPa Calm     96 % 0.25 mm
05:06 8.7 °C 8.1 °C 1019.2 hPa ENE 0.3 km/h 3.7 km/h 96 % 0.25 mm
05:11 8.7 °C 8.1 °C 1018.8 hPa Calm     96 % 0.25 mm
05:16 8.7 °C 8.1 °C 1018.8 hPa Calm     96 % 0.25 mm
05:21 8.7 °C 8.1 °C 1018.8 hPa Calm   1.9 km/h 96 % 0.25 mm
05:26 8.7 °C 8.1 °C 1018.8 hPa Calm   1.9 km/h 96 % 0.51 mm
05:31 8.7 °C 8.3 °C 1018.8 hPa Calm     97 % 0.51 mm
05:36 8.7 °C 8.2 °C 1018.8 hPa Calm     97 % 0.51 mm
05:41 8.7 °C 8.3 °C 1018.5 hPa Calm     97 % 0.25 mm
05:46 8.7 °C 8.2 °C 1018.5 hPa Calm     97 % 0.25 mm
05:51 8.7 °C 8.3 °C 1018.5 hPa Calm     97 % 0.25 mm
05:56 8.7 °C 8.3 °C 1018.5 hPa Calm     97 % 0.25 mm
06:01 8.7 °C 8.3 °C 1018.5 hPa Calm     97 % 0.25 mm
06:06 8.7 °C 8.3 °C 1018.5 hPa Calm     97 % 0.25 mm
06:10 8.8 °C 8.3 °C 1018.2 hPa ENE 0.2 km/h 1.6 km/h 97 % 0.25 mm
06:15 8.8 °C 8.3 °C 1018.2 hPa Calm     97 % 0.25 mm
06:20 8.8 °C 8.3 °C 1018.5 hPa Calm     97 % 0.25 mm
06:25 8.8 °C 8.3 °C 1018.5 hPa Calm     97 % 0 mm
06:30 8.8 °C 8.4 °C 1018.5 hPa Calm   1.6 km/h 97 % 0 mm
06:35 8.8 °C 8.4 °C 1018.8 hPa ENE 0.3 km/h 1.6 km/h 97 % 0 mm
06:40 8.8 °C 8.4 °C 1018.8 hPa Calm     97 % 0 mm
06:45 8.8 °C 8.4 °C 1018.8 hPa ENE 0.6 km/h 3.2 km/h 97 % 0 mm
06:50 8.8 °C 8.4 °C 1018.8 hPa Calm     97 % 0 mm
06:55 8.8 °C 8.4 °C 1018.8 hPa Calm     97 % 0 mm
07:00 8.8 °C 8.4 °C 1018.8 hPa ENE 1.4 km/h 3.7 km/h 97 % 0 mm
07:05 8.9 °C 8.4 °C 1018.8 hPa NE 0.8 km/h 5.6 km/h 97 % 0 mm
07:10 8.9 °C 8.4 °C 1019.2 hPa NE 2.7 km/h 5.6 km/h 97 % 0 mm
07:15 8.9 °C 8.4 °C 1019.2 hPa NE 2.9 km/h 5.6 km/h 97 % 0 mm
07:20 8.9 °C 8.5 °C 1019.2 hPa NE 2.7 km/h 5.6 km/h 97 % 0 mm
07:25 8.9 °C 8.5 °C 1019.5 hPa Calm     97 % 0 mm
07:31 8.9 °C 8.5 °C 1019.5 hPa Calm     97 % 0.51 mm
07:36 8.9 °C 8.5 °C 1019.5 hPa Calm     97 % 0.76 mm
07:41 8.9 °C 8.5 °C 1019.5 hPa Calm     97 % 1.27 mm
07:46 8.9 °C 8.5 °C 1019.9 hPa Calm     97 % 1.52 mm
07:51 8.9 °C 8.5 °C 1019.5 hPa Calm     97 % 1.78 mm
07:56 9 °C 8.6 °C 1019.5 hPa Calm     97 % 2.03 mm
08:01 9.1 °C 8.6 °C 1019.9 hPa Calm     97 % 2.29 mm
08:06 9 °C 8.6 °C 1019.5 hPa Calm     97 % 2.54 mm
08:11 9.1 °C 8.6 °C 1019.5 hPa Calm     97 % 2.54 mm
08:16 9.1 °C 8.6 °C 1019.2 hPa NE 0.2 km/h 1.9 km/h 97 % 2.54 mm
08:21 9.1 °C 8.6 °C 1019.5 hPa Calm     97 % 2.79 mm
08:26 9.1 °C 8.7 °C 1019.5 hPa Calm     97 % 2.54 mm
08:31 9.1 °C 8.7 °C 1019.2 hPa Calm     97 % 2.29 mm
08:36 9.2 °C 8.7 °C 1019.2 hPa Calm     97 % 2.03 mm
08:41 9.2 °C 8.7 °C 1019.2 hPa Calm     97 % 1.78 mm
08:46 9.2 °C 8.8 °C 1019.2 hPa NE 0.5 km/h 3.2 km/h 97 % 1.52 mm
08:51 9.2 °C 8.8 °C 1019.2 hPa NE 1.6 km/h 3.7 km/h 97 % 1.27 mm
08:56 9.3 °C 8.8 °C 1019.2 hPa Calm   1.9 km/h 97 % 1.02 mm
09:01 9.3 °C 8.8 °C 1019.2 hPa Calm   1.9 km/h 97 % 1.02 mm
09:06 9.3 °C 8.9 °C 1019.2 hPa Calm   1.9 km/h 97 % 0.76 mm
09:11 9.3 °C 8.9 °C 1019.2 hPa Calm   3.7 km/h 97 % 0.76 mm
09:16 9.4 °C 8.9 °C 1019.2 hPa NE 1.8 km/h 5.6 km/h 97 % 0.76 mm
09:21 9.3 °C 8.9 °C 1019.2 hPa Calm   1.9 km/h 97 % 0.51 mm
09:26 9.4 °C 8.9 °C 1019.2 hPa NE 0.3 km/h 1.9 km/h 97 % 0.51 mm
09:31 9.4 °C 8.9 °C 1019.2 hPa Calm   1.9 km/h 97 % 0.51 mm
09:36 9.4 °C 8.9 °C 1019.5 hPa NNE 0.3 km/h 5.6 km/h 97 % 0.51 mm
09:41 9.4 °C 9 °C 1019.5 hPa NNE 3.2 km/h 5.6 km/h 97 % 0.25 mm
09:46 9.4 °C 9 °C 1019.5 hPa NNE 2.7 km/h 5.6 km/h 97 % 0.25 mm
09:52 9.4 °C 8.9 °C 1019.5 hPa NNE 1.3 km/h 5.6 km/h 97 % 0.25 mm
09:57 9.4 °C 8.9 °C 1019.2 hPa NNE 0.3 km/h 1.6 km/h 97 % 0.25 mm
10:02 9.4 °C 8.9 °C 1019.2 hPa NE 4.5 km/h 5.6 km/h 97 % 0 mm
10:07 9.3 °C 8.9 °C 1019.2 hPa ENE 4.7 km/h 5.6 km/h 97 % 0 mm
10:12 9.3 °C 8.9 °C 1019.2 hPa ENE 4.7 km/h 7.4 km/h 97 % 0 mm
10:17 9.4 °C 8.9 °C 1019.5 hPa ENE 2.9 km/h 5.6 km/h 97 % 0 mm
10:22 9.5 °C 9.1 °C 1019.5 hPa NE 0.2 km/h   97 % 0 mm
10:27 9.6 °C 9.2 °C 1019.2 hPa NE 0.8 km/h 3.7 km/h 97 % 0 mm
10:32 9.8 °C 9.3 °C 1019.2 hPa North 1.3 km/h 5.6 km/h 97 % 0 mm
10:37 9.8 °C 9.4 °C 1019.2 hPa NE 1 km/h 3.7 km/h 97 % 0 mm
10:42 10.2 °C 9.7 °C 1018.8 hPa NNE 4.3 km/h 5.6 km/h 97 % 0 mm
10:47 10.5 °C 10.2 °C 1019.2 hPa NE 2.9 km/h 5.6 km/h 98 % 0 mm
10:52 10.4 °C 10 °C 1019.5 hPa NE 3.5 km/h 5.6 km/h 97 % 0 mm
10:57 10.5 °C 10.1 °C 1019.2 hPa Calm   1.9 km/h 97 % 0 mm
11:02 10.6 °C 10.3 °C 1019.2 hPa NNW 2.1 km/h 5.6 km/h 98 % 0 mm
11:07 10.6 °C 10.3 °C 1019.2 hPa NNW 1.1 km/h 3.7 km/h 98 % 0 mm
11:12 10.4 °C 9.9 °C 1019.2 hPa ENE 2.4 km/h 5.6 km/h 97 % 0 mm
11:17 10.3 °C 9.8 °C 1018.8 hPa ENE 3.2 km/h 5.6 km/h 97 % 0 mm
11:22 10.3 °C 9.9 °C 1018.8 hPa ENE 3.2 km/h 6.4 km/h 97 % 0 mm
11:27 10.4 °C 9.9 °C 1018.8 hPa NE 2.4 km/h 5.6 km/h 97 % 0 mm
11:32 10.4 °C 10 °C 1018.8 hPa ENE 2.9 km/h 4.8 km/h 97 % 0 mm
11:37 10.7 °C 10.2 °C 1018.8 hPa NE 2.1 km/h 3.7 km/h 97 % 0 mm
11:42 10.8 °C 10.4 °C 1018.8 hPa NNE 3.2 km/h 5.6 km/h 97 % 0 mm
11:47 11.1 °C 10.6 °C 1018.8 hPa NNE 3.2 km/h 8 km/h 97 % 0 mm
11:52 11.2 °C 10.8 °C 1018.8 hPa NNE 1.1 km/h 3.7 km/h 97 % 0 mm
11:57 11.2 °C 10.7 °C 1018.5 hPa NNE 1.8 km/h 5.6 km/h 97 % 0 mm
12:02 11.2 °C 10.6 °C 1018.5 hPa NNE 1.6 km/h 4.8 km/h 96 % 0 mm
12:07 11.4 °C 10.9 °C 1018.8 hPa NNE 1.6 km/h 4.8 km/h 97 % 0 mm
12:12 11.5 °C 10.9 °C 1018.8 hPa NNE 3.2 km/h 6.4 km/h 96 % 0 mm
12:17 11.6 °C 10.8 °C 1018.5 hPa Calm   6.4 km/h 95 % 0 mm
12:22 11.8 °C 11.1 °C 1018.5 hPa Calm   4.8 km/h 95 % 0 mm
12:27 12.1 °C 11.3 °C 1018.5 hPa NNE 3.2 km/h 6.4 km/h 95 % 0 mm
12:32 12.2 °C 11.1 °C 1018.2 hPa NE 1.6 km/h 6.4 km/h 93 % 0 mm
12:37 12.2 °C 10.7 °C 1018.2 hPa NE 1.6 km/h 4.8 km/h 91 % 0 mm
12:42 12.3 °C 10.8 °C 1018.2 hPa NE 1.6 km/h 4.8 km/h 91 % 0 mm
12:47 12.4 °C 10.8 °C 1018.2 hPa Calm   6.4 km/h 90 % 0 mm
12:52 12.4 °C 10.4 °C 1018.2 hPa ENE 3.2 km/h 6.4 km/h 88 % 0 mm
12:57 12.5 °C 10.6 °C 1018.2 hPa NE 2.9 km/h 5.6 km/h 88 % 0 mm
13:02 12.6 °C 11 °C 1017.8 hPa NNE 1.6 km/h 5.6 km/h 90 % 0 mm
13:07 12.8 °C 11 °C 1017.8 hPa NE 3.2 km/h 6.4 km/h 89 % 0 mm
13:12 12.9 °C 10.8 °C 1017.8 hPa ENE 3.4 km/h 5.6 km/h 87 % 0 mm
13:17 12.9 °C 10.8 °C 1017.8 hPa NE 1.6 km/h 6.4 km/h 87 % 0 mm
13:22 13.1 °C 11 °C 1017.8 hPa Calm   4.8 km/h 87 % 0 mm
13:27 13.3 °C 11.4 °C 1017.8 hPa North 1.6 km/h 4.8 km/h 88 % 0 mm
13:32 13.6 °C 11.7 °C 1017.8 hPa WNW 1.6 km/h 4.8 km/h 88 % 0 mm
13:37 13.8 °C 11.7 °C 1017.8 hPa Calm   4.8 km/h 87 % 0 mm
13:42 14.1 °C 12.1 °C 1017.8 hPa WNW 1.6 km/h 4.8 km/h 88 % 0 mm
13:47 14.4 °C 12.1 °C 1017.5 hPa Calm   3.2 km/h 86 % 0 mm
13:52 14.7 °C 12.1 °C 1017.2 hPa North 1.6 km/h 4.8 km/h 84 % 0 mm
13:57 14.9 °C 12.3 °C 1017.5 hPa Calm   3.7 km/h 84 % 0 mm
14:02 15.3 °C 12.8 °C 1017.5 hPa Calm   5.6 km/h 85 % 0 mm
14:07 15.6 °C 12.5 °C 1017.5 hPa NNW 1 km/h 3.7 km/h 82 % 0 mm
14:12 15.7 °C 12.6 °C 1017.5 hPa NE 1.1 km/h 3.7 km/h 82 % 0 mm
14:17 15.8 °C 12.6 °C 1017.2 hPa NNE 1.9 km/h 5.6 km/h 81 % 0 mm
14:22 16.1 °C 13.1 °C 1017.2 hPa NNE 2.4 km/h 5.6 km/h 82 % 0 mm
14:27 16.5 °C 13.4 °C 1017.2 hPa NE 2.3 km/h 4.8 km/h 82 % 0 mm
14:32 16.6 °C 12.9 °C 1016.8 hPa NE 3.9 km/h 8 km/h 79 % 0 mm
14:37 16.6 °C 12.5 °C 1016.8 hPa NE 2.6 km/h 3.7 km/h 77 % 0 mm
14:42 16.4 °C 12.4 °C 1016.8 hPa ENE 3.7 km/h 5.6 km/h 77 % 0 mm
14:47 16.5 °C 12.8 °C 1016.8 hPa NE 0.8 km/h 3.7 km/h 79 % 0 mm
14:52 16.4 °C 12.4 °C 1016.8 hPa East 2.6 km/h 5.6 km/h 77 % 0 mm
14:54 16.4 °C 12.6 °C 1016.8 hPa ENE 3.7 km/h 5.6 km/h 78 % 0 mm
14:59 16.4 °C 12.7 °C 1016.5 hPa East 1.9 km/h 7.4 km/h 79 % 0 mm
15:04 16.4 °C 12.4 °C 1016.5 hPa ENE 6 km/h 7.4 km/h 77 % 0 mm
15:09 16.4 °C 12.6 °C 1016.5 hPa NE 3.9 km/h 5.6 km/h 78 % 0 mm
15:15 16.3 °C 12.3 °C 1016.8 hPa ENE 4.2 km/h 5.6 km/h 77 % 0 mm
15:20 16.2 °C 12.1 °C 1016.8 hPa ENE 3.4 km/h 5.6 km/h 77 % 0 mm
15:25 16.1 °C 12 °C 1016.8 hPa ENE 3.4 km/h 5.6 km/h 77 % 0 mm
15:30 15.8 °C 11.8 °C 1016.8 hPa NE 4.3 km/h 5.6 km/h 77 % 0 mm
15:35 15.8 °C 12.2 °C 1016.5 hPa NE 4 km/h 5.6 km/h 79 % 0 mm
15:40 15.8 °C 12.4 °C 1016.8 hPa ENE 1.9 km/h 5.6 km/h 80 % 0 mm
15:45 16 °C 12.3 °C 1016.8 hPa ENE 1 km/h 3.7 km/h 79 % 0 mm
15:50 16.2 °C 12.6 °C 1016.5 hPa East 2.6 km/h 5.6 km/h 79 % 0 mm
15:55 16.4 °C 12.6 °C 1016.5 hPa ENE 4 km/h 11.1 km/h 78 % 0 mm
16:00 16.4 °C 12.4 °C 1016.5 hPa ENE 5.5 km/h 7.4 km/h 77 % 0 mm
16:05 16.6 °C 12.8 °C 1016.5 hPa ENE 3.1 km/h 5.6 km/h 78 % 0 mm
16:10 16.8 °C 12.7 °C 1016.5 hPa ENE 4.5 km/h 7.4 km/h 77 % 0 mm
16:15 16.8 °C 12.7 °C 1016.5 hPa ENE 3.4 km/h 5.6 km/h 77 % 0 mm
16:20 16.8 °C 12.8 °C 1016.1 hPa NE 6.4 km/h 8 km/h 77 % 0 mm
16:25 16.9 °C 12.9 °C 1016.1 hPa East 2.9 km/h 8 km/h 77 % 0 mm
16:30 17 °C 12.6 °C 1016.1 hPa East 4.8 km/h 9.3 km/h 75 % 0 mm
16:35 17.1 °C 12.7 °C 1016.1 hPa East 5 km/h 11.1 km/h 75 % 0 mm
16:40 17.3 °C 13 °C 1016.1 hPa ENE 5 km/h 7.4 km/h 76 % 0 mm
16:45 17.3 °C 12.4 °C 1016.1 hPa East 3.9 km/h 7.4 km/h 73 % 0 mm
16:50 17.3 °C 12.4 °C 1016.1 hPa ENE 4.8 km/h 7.4 km/h 73 % 0 mm
16:55 17.2 °C 12.1 °C 1016.1 hPa ENE 6 km/h 11.1 km/h 72 % 0 mm
17:00 17.1 °C 12.2 °C 1015.8 hPa ENE 4 km/h 5.6 km/h 73 % 0 mm
17:05 17.1 °C 12.4 °C 1015.8 hPa East 7.7 km/h 13 km/h 74 % 0 mm
17:10 17 °C 12.3 °C 1015.8 hPa East 6.6 km/h 9.3 km/h 74 % 0 mm
17:15 16.9 °C 12.2 °C 1015.8 hPa East 5.3 km/h 8 km/h 74 % 0 mm
17:21 16.8 °C 11.9 °C 1015.8 hPa ESE 6.3 km/h 11.1 km/h 73 % 0 mm
17:26 16.8 °C 11.9 °C 1016.1 hPa East 7.4 km/h 11.1 km/h 73 % 0 mm
17:31 16.7 °C 11.8 °C 1015.8 hPa East 6.9 km/h 9.3 km/h 73 % 0 mm
17:36 16.7 °C 11.8 °C 1015.8 hPa East 3.5 km/h 7.4 km/h 73 % 0 mm
17:41 16.6 °C 11.9 °C 1015.8 hPa East 2.6 km/h 3.7 km/h 74 % 0 mm
17:46 16.6 °C 11.9 °C 1015.8 hPa East 3.2 km/h 5.6 km/h 74 % 0 mm
17:51 16.7 °C 12.2 °C 1015.5 hPa East 3.5 km/h 5.6 km/h 75 % 0 mm
17:56 16.7 °C 12.3 °C 1015.8 hPa East 2.3 km/h 4.8 km/h 75 % 0 mm
18:01 16.8 °C 12.4 °C 1015.8 hPa East 0.5 km/h 7.4 km/h 75 % 0 mm
18:06 16.9 °C 12.4 °C 1015.8 hPa East 1.9 km/h 5.6 km/h 75 % 0 mm
18:11 16.9 °C 12.3 °C 1015.8 hPa East 1.6 km/h 5.6 km/h 74 % 0 mm
18:16 17.1 °C 12.4 °C 1015.8 hPa ENE 2.7 km/h 5.6 km/h 74 % 0 mm
18:21 17 °C 12.1 °C 1015.8 hPa ENE 3.5 km/h 8 km/h 73 % 0 mm
18:26 16.8 °C 11.9 °C 1015.8 hPa NE 2.6 km/h 5.6 km/h 73 % 0 mm
18:31 16.8 °C 12.1 °C 1016.1 hPa NE 1.3 km/h 3.7 km/h 74 % 0 mm
18:36 16.6 °C 11.7 °C 1016.1 hPa ENE 2.6 km/h 4.8 km/h 73 % 0 mm
18:41 16.3 °C 11.4 °C 1015.8 hPa ENE 1.6 km/h 3.7 km/h 73 % 0 mm
18:46 16.1 °C 11.6 °C 1015.8 hPa ENE 0.6 km/h 1.9 km/h 75 % 0 mm
18:51 15.8 °C 11.6 °C 1015.8 hPa Calm     76 % 0 mm
18:57 15.7 °C 11.7 °C 1015.8 hPa SSE 3.1 km/h 7.4 km/h 77 % 0 mm
19:02 15.6 °C 11.9 °C 1016.1 hPa SSE 3.2 km/h 6.4 km/h 79 % 0 mm
19:07 15.6 °C 12.1 °C 1015.8 hPa SE 2.4 km/h 7.4 km/h 80 % 0 mm
19:12 15.5 °C 11.9 °C 1015.8 hPa SSE 6.3 km/h 13 km/h 79 % 0 mm
19:17 15.4 °C 12 °C 1015.8 hPa SSE 10.1 km/h 13 km/h 80 % 0 mm
19:22 15.3 °C 11.8 °C 1016.1 hPa SSE 2.9 km/h 6.4 km/h 80 % 0 mm
19:27 15.2 °C 11.7 °C 1016.1 hPa SSE 7.9 km/h 16.1 km/h 80 % 0 mm
19:32 15 °C 11.6 °C 1016.1 hPa SSE 2.6 km/h 5.6 km/h 80 % 0 mm
19:37 14.8 °C 11.4 °C 1016.1 hPa SSW 4 km/h 8 km/h 80 % 0 mm
19:42 14.7 °C 11.5 °C 1016.1 hPa SE 1.4 km/h 5.6 km/h 81 % 0 mm
19:47 14.6 °C 11.4 °C 1016.5 hPa SSE 1 km/h 3.7 km/h 81 % 0 mm
19:52 14.5 °C 11.3 °C 1016.5 hPa SSE 1.3 km/h 3.7 km/h 81 % 0 mm
19:57 14.4 °C 11.3 °C 1016.1 hPa SSE 1.4 km/h 3.7 km/h 82 % 0 mm
20:02 14.3 °C 11.2 °C 1016.5 hPa SSW 6.8 km/h 11.3 km/h 82 % 0 mm
20:07 14.1 °C 11.1 °C 1016.5 hPa South 5.3 km/h 11.1 km/h 82 % 0 mm
20:12 13.8 °C 11 °C 1016.1 hPa SE 3.9 km/h 8 km/h 83 % 0 mm
20:17 13.6 °C 10.8 °C 1016.1 hPa SSE 5.6 km/h 9.3 km/h 83 % 0 mm
20:22 13.5 °C 10.8 °C 1016.1 hPa SSE 3.1 km/h 12.9 km/h 84 % 0 mm
20:27 13.3 °C 10.7 °C 1016.1 hPa SE 4.3 km/h 6.4 km/h 84 % 0 mm
20:32 13.2 °C 10.6 °C 1016.5 hPa ESE 0.5 km/h 1.9 km/h 84 % 0 mm
20:37 13.2 °C 10.5 °C 1016.5 hPa SE 2.7 km/h 5.6 km/h 84 % 0 mm
20:42 13 °C 10.3 °C 1016.5 hPa SE 3.9 km/h 13 km/h 84 % 0 mm
20:47 12.8 °C 10.2 °C 1016.5 hPa SE 2.7 km/h 11.1 km/h 84 % 0 mm
20:52 12.8 °C 10.3 °C 1016.8 hPa SE 4.3 km/h 8 km/h 85 % 0 mm
20:57 12.7 °C 10.2 °C 1016.8 hPa SE 1.9 km/h 7.4 km/h 85 % 0 mm
21:02 12.6 °C 10.1 °C 1016.8 hPa SE 3.7 km/h 6.4 km/h 85 % 0 mm
21:07 12.5 °C 10.1 °C 1016.8 hPa Calm   3.2 km/h 85 % 0 mm
21:12 12.4 °C 10.1 °C 1016.8 hPa SSE 1.6 km/h 5.6 km/h 86 % 0 mm
21:17 12.3 °C 10.1 °C 1017.2 hPa SE 3.1 km/h 7.4 km/h 86 % 0 mm
21:22 12.3 °C 10 °C 1017.2 hPa ESE 3.4 km/h 5.6 km/h 86 % 0 mm
21:27 12.2 °C 10.1 °C 1017.2 hPa SE 0.6 km/h 5.6 km/h 87 % 0 mm
21:32 12.2 °C 10.1 °C 1017.2 hPa SE 1.4 km/h 3.7 km/h 87 % 0 mm
21:37 12.1 °C 10 °C 1017.2 hPa SE 0.5 km/h 5.6 km/h 87 % 0 mm
21:42 12.1 °C 9.9 °C 1017.2 hPa SE 2.9 km/h 5.6 km/h 87 % 0 mm
21:47 12.1 °C 9.9 °C 1017.5 hPa SE 1.6 km/h 5.6 km/h 87 % 0 mm
21:52 12.1 °C 9.9 °C 1017.2 hPa SE 2.4 km/h 9.3 km/h 87 % 0 mm
21:57 12.1 °C 10.1 °C 1017.2 hPa SSE 4.7 km/h 5.6 km/h 88 % 0 mm
22:02 12.1 °C 9.9 °C 1017.2 hPa SSE 5.6 km/h 13 km/h 87 % 0 mm
22:07 12.1 °C 9.9 °C 1017.5 hPa SSE 3.9 km/h 11.1 km/h 87 % 0 mm
22:12 12.1 °C 10 °C 1017.2 hPa SSE 6.3 km/h 7.4 km/h 87 % 0 mm
22:17 12.2 °C 10.1 °C 1017.2 hPa ESE 6.4 km/h 13 km/h 87 % 0 mm
22:22 12.1 °C 10 °C 1017.2 hPa SE 4.8 km/h 11.3 km/h 87 % 0 mm
22:27 12.1 °C 10 °C 1016.8 hPa SE 4.8 km/h 14.5 km/h 87 % 0 mm
22:32 12.1 °C 9.9 °C 1016.8 hPa SE 8 km/h 19.3 km/h 87 % 0 mm
22:33 12.1 °C 9.9 °C 1016.8 hPa SE 2.6 km/h 9.3 km/h 87 % 0 mm
22:38 12 °C 10.1 °C 1016.8 hPa ESE 5.3 km/h 18.5 km/h 88 % 0 mm
22:43 11.9 °C 10 °C 1016.8 hPa ESE 4.5 km/h 8 km/h 88 % 0 mm
22:48 11.8 °C 9.9 °C 1016.8 hPa SSE 6.1 km/h 8 km/h 88 % 0 mm
22:53 11.7 °C 9.8 °C 1016.8 hPa SE 8.9 km/h 13 km/h 88 % 0 mm
22:58 11.7 °C 9.7 °C 1016.8 hPa SSE 5.1 km/h 13 km/h 88 % 0 mm
23:03 11.6 °C 9.8 °C 1016.8 hPa ESE 6.1 km/h 9.7 km/h 89 % 0 mm
23:08 11.5 °C 9.7 °C 1016.8 hPa SE 7.2 km/h 11.1 km/h 89 % 0 mm
23:13 11.4 °C 9.7 °C 1016.8 hPa SE 6.4 km/h 11.1 km/h 89 % 0 mm
23:18 11.4 °C 9.7 °C 1016.8 hPa ESE 1.1 km/h 9.3 km/h 89 % 0 mm
23:23 11.4 °C 9.7 °C 1016.5 hPa ESE 9.3 km/h 11.3 km/h 89 % 0 mm
23:28 11.4 °C 9.7 °C 1016.5 hPa SSE 4 km/h 6.4 km/h 89 % 0 mm
23:33 11.3 °C 9.8 °C 1016.5 hPa SE 4.5 km/h 8 km/h 90 % 0 mm
23:38 11.3 °C 9.7 °C 1016.5 hPa SE 7.2 km/h 11.3 km/h 90 % 0 mm
23:43 11.3 °C 9.7 °C 1016.8 hPa SSE 10 km/h 14.8 km/h 90 % 0 mm
23:48 11.2 °C 9.5 °C 1016.8 hPa SE 1.8 km/h 7.4 km/h 89 % 0 mm
23:53 11.2 °C 9.4 °C 1016.8 hPa SSE 8.7 km/h 14.8 km/h 89 % 0 mm
23:58 11.1 °C 9.4 °C 1016.8 hPa SE 5.1 km/h 14.8 km/h 89 % 0 mm
Crab Meadow Weather
Compliments of Weather Underground - 3 mb

Script developed by  Jim McMurry - jmcmurry@mwt.net Adapted for the template by  Wim van der Kuil - Leuven-Template.eu

Humidity: Humidity is the amount of water vapor in the air. The term "humidity" refers to relative humidity. Relative humidity is defined as the amount of water vapor in a sample of air compared to the maximum amount of water vapor the air can hold at any specific temperature in a form of 0 to 100%. Relative humidity is important in forecasting weather. Humidity indicates the likelihood of precipitation, dew, or fog. High humidity makes people feel hotter outside in the summer because it reduces the effectiveness of sweating to cool the body by preventing the evaporation of perspiration from the skin.